Weather History for KDAN - May, 2013

Change the Weather History Date:

Sunday, May 26, 2013

  Actual Average Record
Temperature  
Mean Temperature 60 °F 69 °F  
Max Temperature 76 °F 79 °F 96 °F (1953)
Min Temperature 44 °F 59 °F 44 °F (1956)
Degree Days  
Heating Degree Days 5 1  
Month to date heating degree days 109 64  
Since 1 July heating degree days 3778 3807  
Cooling Degree Days 0 5  
Month to date cooling degree days 79 82  
Year to date cooling degree days 127 116  
Growing Degree Days 10 (Base 50)    
Moisture  
Dew Point 43 °F    
Average Humidity 56    
Maximum Humidity 86    
Minimum Humidity 25    
Precipitation  
Precipitation 0.00 in 0.14 in 1.20 in (2001)
Month to date precipitation 4.81 3.18  
Year to date precipitation 20.21 17.18  
Snow  
Snow 0.00 in - - ()
Month to date snowfall 0.0  
Since 1 July snowfall 1.7  
Snow Depth 0.00 in    
Sea Level Pressure  
Sea Level Pressure 30.20 in    
Wind  
Wind Speed 3 mph (WSW)    
Max Wind Speed 12 mph    
Max Gust Speed 16 mph    
Visibility 10 miles    
Events      
T = Trace of Precipitation, MM = Missing Value Source: NWS Daily Summary

Daily Weather History Graph

Daily Weather History Graph

Search for Another Location

Airport or City:

Trip Planner

Search our weather history database for the weather conditions in past years. The results will help you decide how hot, cold, wet, or windy it might be!

Date:

Astronomy

May. 26, 2013 Rise Set
Actual Time 6:02 AM EDT 8:26 PM EDT
Civil Twilight 5:33 AM EDT 8:56 PM EDT
Nautical Twilight 4:56 AM EDT 9:32 PM EDT
Astronomical Twilight 4:16 AM EDT 10:12 PM EDT
Moon 10:13 PM EDT 7:29 AM EDT
Length of Visible Light 15h 22m
Length of Day
14h 23m
Waning Gibbous, 97% of the Moon is Illuminated
May 26
Waning Gibbous
May 31
Last Quarter
Jun 8
New
Jun 16
First Quarter
Jun 23
Full

Hourly Weather History & Observations

Time (EDT) Temp. Dew Point Humidity Pressure Visibility Wind Dir Wind Speed Gust Speed Precip Events Conditions
12:53 AM 57.0 °F 36.0 °F 45% 30.20 in 10.0 mi NNW 6.9 mph - N/A   Clear
1:53 AM 55.0 °F 37.0 °F 51% 30.20 in 10.0 mi Variable 3.5 mph - N/A   Clear
2:53 AM 54.0 °F 37.9 °F 55% 30.20 in 10.0 mi NW 3.5 mph - N/A   Clear
3:53 AM 46.0 °F 39.9 °F 79% 30.19 in 10.0 mi Calm Calm - N/A   Clear
4:53 AM 45.0 °F 39.9 °F 82% 30.21 in 10.0 mi Calm Calm - N/A   Clear
5:53 AM 46.9 °F 43.0 °F 86% 30.22 in 10.0 mi Calm Calm - N/A   Clear
6:53 AM 48.9 °F 43.0 °F 80% 30.24 in 10.0 mi Calm Calm - N/A   Clear
7:53 AM 53.1 °F 45.0 °F 74% 30.25 in 10.0 mi SW 3.5 mph - N/A   Mostly Cloudy
8:53 AM 55.0 °F 46.0 °F 72% 30.26 in 10.0 mi Calm Calm - N/A   Clear
9:53 AM 59.0 °F 48.9 °F 69% 30.27 in 10.0 mi Variable 3.5 mph - N/A   Clear
10:53 AM 63.0 °F 46.0 °F 54% 30.25 in 10.0 mi Variable 4.6 mph - N/A   Clear
11:53 AM 66.9 °F 45.0 °F 45% 30.23 in 10.0 mi West 6.9 mph - N/A   Clear
12:53 PM 70.0 °F 43.0 °F 38% 30.22 in 10.0 mi SW 8.1 mph - N/A   Clear
1:53 PM 71.1 °F 42.1 °F 35% 30.18 in 10.0 mi Calm Calm - N/A   Clear
2:53 PM 73.9 °F 41.0 °F 30% 30.18 in 10.0 mi Variable 5.8 mph - N/A   Clear
3:53 PM 75.9 °F 39.0 °F 26% 30.16 in 10.0 mi North 9.2 mph - N/A   Clear
4:53 PM 75.0 °F 37.9 °F 26% 30.16 in 10.0 mi NW 4.6 mph - N/A   Clear
5:53 PM 73.9 °F 39.9 °F 29% 30.15 in 10.0 mi SSW 3.5 mph - N/A   Clear
6:53 PM 73.9 °F 46.0 °F 37% 30.15 in 10.0 mi Calm Calm - N/A   Clear
7:53 PM 70.0 °F 46.9 °F 44% 30.16 in 10.0 mi SE 3.5 mph - N/A   Clear
8:53 PM 64.9 °F 48.0 °F 54% 30.17 in 10.0 mi South 3.5 mph - N/A   Clear
9:53 PM 61.0 °F 48.9 °F 64% 30.19 in 10.0 mi SSW 3.5 mph - N/A   Clear
10:53 PM 55.9 °F 50.0 °F 80% 30.20 in 10.0 mi Calm Calm - N/A   Clear
11:53 PM 53.1 °F 48.9 °F 86% 30.20 in 10.0 mi Calm Calm - N/A   Clear